Le Raizet Airport, Guadeloupe

2:03 AM AST on June 20, 2018 (GMT -0400)
Le Raizet

Weather History for TFFR - September, 2017

Change the Weather History Date:

Tuesday, September 5, 2017

  Actual Average Record
Temperature  
Mean Temperature 82 °F -  
Max Temperature 88 °F 87 °F 91 °F (1996)
Min Temperature 77 °F 74 °F 71 °F (2013)
Cooling Degree Days 18    
Growing Degree Days 32 (Base 50)    
Moisture  
Dew Point 78 °F    
Average Humidity 88    
Maximum Humidity 100    
Minimum Humidity 70    
Precipitation  
Precipitation 0.35 in 0.31 in - ()
Sea Level Pressure  
Sea Level Pressure 29.72 in    
Wind  
Wind Speed 8 mph ()    
Max Wind Speed 22 mph    
Max Gust Speed 36 mph    
Visibility 7.1 miles    
Events Fog , Rain , Thunderstorm    
Averages and records for this station are not official NWS values.
T = Trace of Precipitation, MM = Missing Value Source: Averaged Metar Reports

Daily Weather History Graph

Daily Weather History Graph

Search for Another Location

Airport or City:

Astronomy

Sep. 05, 2017 Rise Set
Actual Time 5:53 AM AST 6:15 PM AST
Civil Twilight 5:31 AM AST 6:37 PM AST
Nautical Twilight 5:06 AM AST 7:02 PM AST
Astronomical Twilight 4:40 AM AST 7:28 PM AST
Moon 6:01 PM AST (9/5) 5:10 AM AST (9/5)
Length of Visible Light 13h 05m
Length of Day
12h 22m
Full, 100% of the Moon is Illuminated
Sep 5
Full
Sep 6
Full
Sep 13
Last Quarter
Sep 20
New
Sep 27
First Quarter

Hourly Weather History & Observations

Time (AST) Temp. Heat Index Dew Point Humidity Pressure Visibility Wind Dir Wind Speed Gust Speed Precip Events Conditions
12:00 AM 77.0 °F - 77.0 °F 100% 29.83 in - Variable 1.2 mph - N/A   Clear
12:30 AM 77.0 °F - 77.0 °F 100% 29.83 in - North 3.5 mph - N/A   Clear
1:00 AM 77.0 °F - 77.0 °F 100% 29.80 in - North 3.5 mph - N/A   Clear
1:30 AM 77.0 °F - 77.0 °F 100% 29.80 in 6.2 mi Variable 3.5 mph - N/A   Scattered Clouds
2:00 AM 78 °F - 77 °F 94% 29.81 in 25 mi North 5.8 mph - -   Clear
2:00 AM 78.8 °F - 77.0 °F 94% 29.80 in 6.2 mi North 5.8 mph - N/A   Partly Cloudy
2:30 AM 77.0 °F - 77.0 °F 100% 29.80 in - North 3.5 mph - N/A   Clear
3:00 AM 77.0 °F - 77.0 °F 100% 29.77 in - North 4.6 mph - N/A   Clear
3:30 AM 78.8 °F - 77.0 °F 94% 29.77 in 6.2 mi North 5.8 mph - N/A   Scattered Clouds
4:00 AM 78.8 °F - 77.0 °F 94% 29.77 in 6.2 mi NNW 4.6 mph - N/A   Mostly Cloudy
4:30 AM 78.8 °F - 77.0 °F 94% 29.77 in 6.2 mi North 6.9 mph - N/A   Mostly Cloudy
5:00 AM 79 °F - 77 °F 92% 29.78 in 13 mi North 3.5 mph - -   Clear
5:00 AM 78.8 °F - 77.0 °F 94% 29.77 in 6.2 mi North 3.5 mph - N/A   Mostly Cloudy
5:30 AM 78.8 °F - 77.0 °F 94% 29.77 in 6.2 mi ENE 6.9 mph - N/A   Mostly Cloudy
6:00 AM 78.8 °F - 77.0 °F 94% 29.77 in 6.2 mi Variable 2.3 mph - N/A   Mostly Cloudy
6:30 AM 78.8 °F - 77.0 °F 94% 29.77 in 6.2 mi NNE 4.6 mph - N/A   Scattered Clouds
7:00 AM 78.8 °F - 77.0 °F 94% 29.80 in 6.2 mi Variable 3.5 mph - N/A   Unknown
7:30 AM 78.8 °F - 77.0 °F 94% 29.80 in 4.3 mi NNE 5.8 mph - N/A Fog , Rain , Thunderstorm Heavy Thunderstorms and Rain
8:00 AM 80 °F - 79 °F 94% 29.81 in 22 mi North 4.6 mph - -   Clear
8:00 AM 80.6 °F 88.1 °F 78.8 °F 94% 29.80 in 6.2 mi North 4.6 mph - N/A   Mostly Cloudy
8:30 AM 84.2 °F 98.3 °F 80.6 °F 89% 29.80 in 6.2 mi NNW 4.6 mph - N/A   Partly Cloudy
9:00 AM 86.0 °F 99.3 °F 78.8 °F 79% 29.80 in 6.2 mi North 10.4 mph - N/A   Mostly Cloudy
9:30 AM 86.0 °F 99.3 °F 78.8 °F 79% 29.80 in 6.2 mi North 12.7 mph - N/A   Mostly Cloudy
10:00 AM 87.8 °F 99.7 °F 77.0 °F 70% 29.80 in 6.2 mi North 11.5 mph - N/A   Mostly Cloudy
10:30 AM 87.8 °F 102.5 °F 78.8 °F 75% 29.80 in 6.2 mi North 12.7 mph - N/A   Mostly Cloudy
11:00 AM 87 °F - 80 °F 74% 29.81 in 10 mi NNW 16.1 mph - -   Clear
11:00 AM 86.0 °F 101.9 °F 80.6 °F 84% 29.80 in 6.2 mi NNW 16.1 mph - N/A   Mostly Cloudy
11:30 AM 80.6 °F 87.1 °F 77.0 °F 89% 29.80 in 5.6 mi North 15.0 mph 28.8 mph N/A   Mostly Cloudy
12:00 PM 86.0 °F 99.3 °F 78.8 °F 79% 29.77 in 6.2 mi North 16.1 mph - N/A   Partly Cloudy
12:30 PM 86.0 °F 99.3 °F 78.8 °F 79% 29.77 in 6.2 mi North 17.3 mph - N/A   Mostly Cloudy
1:00 PM 80.6 °F 88.1 °F 78.8 °F 94% 29.74 in 6.2 mi NE 9.2 mph - N/A Rain Light Rain
1:30 PM 84.2 °F 96.1 °F 78.8 °F 84% 29.71 in 6.2 mi NNW 13.8 mph - N/A   Partly Cloudy
2:00 PM 84 °F - 78 °F 78% 29.72 in 16 mi NNW 15.0 mph - -   Clear
2:00 PM 84.2 °F 96.1 °F 78.8 °F 84% 29.71 in 6.2 mi NNW 15.0 mph - N/A   Mostly Cloudy
2:30 PM 84.2 °F 94.1 °F 77.0 °F 79% 29.68 in 6.2 mi NNW 15.0 mph - N/A   Overcast
3:00 PM 84.2 °F 94.1 °F 77.0 °F 79% 29.68 in 6.2 mi NNW 19.6 mph - N/A   Mostly Cloudy
3:30 PM 80.6 °F 87.1 °F 77.0 °F 89% 29.68 in 6.2 mi NNW 13.8 mph - N/A   Mostly Cloudy
4:00 PM 80.6 °F 88.1 °F 78.8 °F 94% 29.68 in 6.2 mi NNW 15.0 mph 32.2 mph N/A   Mostly Cloudy
4:30 PM 80.6 °F 87.1 °F 77.0 °F 89% 29.65 in 6.2 mi NNW 17.3 mph 29.9 mph N/A   Mostly Cloudy
5:00 PM 82 °F - 78 °F 83% 29.66 in 18 mi NW 17.3 mph - -   Clear
5:00 PM 82.4 °F 90.9 °F 77.0 °F 84% 29.65 in 6.2 mi NW 17.3 mph - N/A   Mostly Cloudy
5:30 PM 82.4 °F 90.9 °F 77.0 °F 84% 29.62 in 6.2 mi NW 19.6 mph - N/A   Overcast
6:00 PM 82.4 °F 90.9 °F 77.0 °F 84% 29.62 in 6.2 mi NNW 19.6 mph - N/A   Mostly Cloudy
6:30 PM 82.4 °F 90.9 °F 77.0 °F 84% 29.62 in 6.2 mi NW 19.6 mph - N/A   Mostly Cloudy
7:00 PM 82.4 °F 89.5 °F 75.2 °F 79% 29.65 in 6.2 mi NNW 19.6 mph - N/A   Mostly Cloudy
7:30 PM 80.6 °F 87.1 °F 77.0 °F 89% 29.62 in 6.2 mi NW 19.6 mph 35.7 mph N/A   Mostly Cloudy
8:00 PM 82 °F - 76 °F 79% 29.64 in 16 mi NW 19.6 mph - -   Clear
8:00 PM 82.4 °F 90.9 °F 77.0 °F 84% 29.62 in 6.2 mi NW 19.6 mph - N/A   Mostly Cloudy
8:30 PM 80.6 °F 87.1 °F 77.0 °F 89% 29.62 in 6.2 mi WNW 21.9 mph 34.5 mph N/A   Mostly Cloudy
9:00 PM 80.6 °F 87.1 °F 77.0 °F 89% 29.62 in 6.2 mi WNW 19.6 mph - N/A   Mostly Cloudy
9:30 PM 78.8 °F - 77.0 °F 94% 29.62 in 2.5 mi WNW 19.6 mph - N/A Rain Light Rain
10:00 PM 78.8 °F - 77.0 °F 94% 29.62 in 6.2 mi West 15.0 mph - N/A   Mostly Cloudy
10:30 PM 78.8 °F - 77.0 °F 94% 29.59 in 6.2 mi West 17.3 mph - N/A   Mostly Cloudy
11:00 PM 81 °F - 76 °F 82% 29.61 in 15 mi WSW 15.0 mph - -   Clear
11:00 PM 80.6 °F 87.1 °F 77.0 °F 89% 29.59 in 6.2 mi WSW 15.0 mph - N/A   Mostly Cloudy
11:30 PM 80.6 °F 87.1 °F 77.0 °F 89% 29.59 in 6.2 mi SW 12.7 mph - N/A   Mostly Cloudy